FENGYUN1
1 25730U 99025A   10272.82045300  .00000639  00000-0  39801-3 0  1473
2 25730 098.7938 235.0863 0022183 333.0185 026.9870 14.08302322586410
OKEAN-0
1 25860U 99039A   10273.52489308  .00000110  00000-0  24166-4 0  1125
2 25860 097.8460 242.7188 0001870 085.4524 274.6892 14.73666414602416
NOAA-16
1 26536U 00055A   10273.41185627 -.00000015  00000-0  17130-4 0   173
2 26536 099.1669 293.3467 0011040 045.7405 314.4693 14.12577292516685
NOAA-17
1 27453U 02032A   10273.38003499  .00000233  00000-0  11889-3 0   109
2 27453 098.4187 319.5277 0011624 185.5345 174.5713 14.24195007429678
NOAA-18
1 28654U 05018A   10273.43324569 -.00000117  00000-0 -39764-4 0  4986
2 28654 098.9606 219.4394 0015167 114.9746 245.3010 14.11391214276286
NOAA-19
1 33591U 09005A   10273.44419876  .00000128  00000-0  94942-4 0  6946
2 33591 098.7955 213.3617 0014251 355.1155 004.9869 14.11089156 84753
HUBBLE
1 20580U 90037B   10272.23879036  .00000645  00000-0  36481-4 0  6521
2 20580 028.4704 280.5493 0003568 222.9977 137.0272 15.01047691920404
ISS
1 25544U 98067A   10274.00438780  .00016846  00000-0  13277-3 0  9868
2 25544 051.6461 049.2272 0007187 051.0041 054.0995 15.71552096680114
CO-58
1 28895U 05043F   10273.39264466  .00000206  00000-0  52409-4 0  6929
2 28895 097.9967 154.2936 0016930 318.0130 041.9792 14.59939364262337
FALCON
1 30776U 07006E   10273.91434565  .00001121  00000-0  82841-4 0  9268
2 30776 035.4328 122.3227 0001900 348.5116 011.5556 15.03845811195988
MAST
1 31126U 07012K   10273.67728617  .00000136  00000-0  41337-4 0  9767
2 31126 097.9268 310.1802 0093438 258.2401 100.8317 14.53624077183382
CAPE1
1 31130U 07012P   10273.34834137  .00000144  00000-0  44022-4 0  9944
2 31130 097.9294 307.0739 0101463 268.1670 090.7873 14.52227588182924
COMPASS
1 32787U 08021E   10273.29842074  .00000792  00000-0  10645-3 0  7903
2 32787 097.8830 336.5545 0015050 306.8127 053.1662 14.81983142131068
AAUSAT2
1 32788U 08021F   10272.61602595  .00000871  00000-0  11600-3 0 07811
2 32788 097.8840 336.0346 0014677 310.1860 049.8126 14.82131418130978
DO-64
1 32789U 08021G   10273.76051641  .00001327  00000-0  17237-3 0  7997
2 32789 097.8909 337.7606 0014559 303.1095 056.8705 14.82334228131148
CO-66
1 32791U 08021J   10273.20114564  .00000234  00000-0  36321-4 0  7838
2 32791 097.8848 336.4602 0015403 305.8243 054.1587 14.81748137131009
RS-30
1 32953U 08025A   10273.65072943  .00000010  00000-0  00000 0 0   908
2 32953 082.5048 324.1077 0017736 229.7441 130.2090 12.43008021106843
TACSAT-3
1 35001U 09028A   10272.55644394  .00007552  00000-0  17190-3 0 04085
2 35001 040.4562 306.7240 0021019 063.8756 296.4220 15.42869184076750
PHARMSAT
1 35002U 09028B   10272.47811859  .00006386  00000-0  14398-3 0  3708
2 35002 040.4706 304.8716 0023842 066.5413 293.7906 15.43274724 76767
HAWKSAT1
1 35003U 09028C   10272.46795593  .00015177  00000-0  28953-3 0  4019
2 35003 040.4598 296.2392 0021558 087.2326 273.0956 15.47511605 76869
CP6
1 35004U 09028D   10272.46087459  .00018639  00000-0  33910-3 0  3974
2 35004 040.4601 294.3942 0020573 092.2492 268.0682 15.48785281 76876
AEROCUB3
1 35005U 09028E   10273.47735782  .00081235  00000-0  94692-3 0  4681
2 35005 040.4682 278.4571 0019824 126.4765 233.7887 15.60378511 77142
CASTOR
1 35694U 09038F   10230.44082147  .07179566  12689-4  99310-4 0  6559
2 35694 051.5930 222.0149 0004218 308.0851 053.0105 16.48877011 61107
METEOR-M
1 35865U 09049A   10273.69172490  .00000176  00000-0  10000-3 0  7020
2 35865 098.7460 326.6728 0003356 058.8938 301.2550 14.21831794 53717
RS-38
1 35869U 09049E   10273.79242652  .00000177  00000-0  10000-3 0  7136
2 35869 098.7452 326.8123 0005437 063.0843 297.0870 14.21989635 53735
